Time,TemperatureF,DewpointF,PressureIn,WindDirection,WindDirectionDegrees,WindSpeedMPH,WindSpeedGustMPH,Humidity,HourlyPrecipIn,Conditions,Clouds,dailyrainin,SoftwareType,DateUTC
2013-07-27 00:02:00,49.0,44.0,30.32,ESE,114,3.0,-999.0,82,-99.99,,,-99.99,,2013-07-27 06:02:00,
2013-07-27 00:12:00,49.0,44.0,30.32,ESE,114,3.0,-999.0,82,-99.99,,,-99.99,,2013-07-27 06:12:00,
2013-07-27 01:12:00,46.0,43.0,30.31,ESE,114,0.0,-999.0,88,-99.99,,,-99.99,,2013-07-27 07:12:00,
2013-07-27 01:22:00,46.0,43.0,30.31,ESE,114,0.0,-999.0,88,-99.99,,,-99.99,,2013-07-27 07:22:00,
2013-07-27 01:33:00,46.0,43.0,30.31,ESE,114,0.0,-999.0,88,-99.99,,,-99.99,,2013-07-27 07:33:00,
2013-07-27 01:44:00,45.0,42.0,30.31,ESE,114,1.0,-999.0,90,-99.99,,,-99.99,,2013-07-27 07:44:00,
2013-07-27 01:52:00,45.0,42.0,30.31,ESE,114,1.0,-999.0,90,-99.99,,,-99.99,,2013-07-27 07:52:00,
2013-07-27 02:12:00,45.0,42.0,30.31,ESE,114,1.0,-999.0,90,-99.99,,,-99.99,,2013-07-27 08:12:00,
2013-07-27 03:12:00,43.0,41.0,30.30,ESE,114,1.0,-999.0,94,-99.99,,,-99.99,,2013-07-27 09:12:00,
2013-07-27 03:22:00,43.0,41.0,30.30,ESE,114,1.0,-999.0,94,-99.99,,,-99.99,,2013-07-27 09:22:00,
2013-07-27 03:33:00,43.0,41.0,30.30,ESE,114,1.0,-999.0,94,-99.99,,,-99.99,,2013-07-27 09:33:00,
2013-07-27 03:44:00,43.0,41.0,30.29,ESE,114,0.0,-999.0,92,-99.99,,,-99.99,,2013-07-27 09:44:00,
2013-07-27 03:52:00,43.0,41.0,30.29,ESE,114,0.0,-999.0,92,-99.99,,,-99.99,,2013-07-27 09:52:00,
2013-07-27 04:02:00,43.0,41.0,30.29,ESE,114,0.0,-999.0,92,-99.99,,,-99.99,,2013-07-27 10:02:00,
2013-07-27 04:12:00,43.0,41.0,30.29,ESE,114,0.0,-999.0,92,-99.99,,,-99.99,,2013-07-27 10:12:00,
2013-07-27 04:22:00,43.0,41.0,30.30,ESE,114,3.0,-999.0,92,-99.99,,,-99.99,,2013-07-27 10:22:00,
2013-07-27 04:32:00,43.0,41.0,30.30,ESE,114,3.0,-999.0,92,-99.99,,,-99.99,,2013-07-27 10:32:00,
2013-07-27 04:44:00,43.0,41.0,30.30,ESE,114,3.0,-999.0,92,-99.99,,,-99.99,,2013-07-27 10:44:00,
2013-07-27 05:02:00,41.0,39.0,30.30,ESE,114,0.0,-999.0,92,-99.99,,,-99.99,,2013-07-27 11:02:00,
2013-07-27 05:12:00,41.0,39.0,30.29,ESE,114,0.0,-999.0,92,-99.99,,,-99.99,,2013-07-27 11:12:00,
2013-07-27 05:22:00,41.0,39.0,30.29,ESE,114,0.0,-999.0,92,-99.99,,,-99.99,,2013-07-27 11:22:00,
2013-07-27 05:32:00,41.0,39.0,30.29,ESE,114,0.0,-999.0,92,-99.99,,,-99.99,,2013-07-27 11:32:00,
2013-07-27 05:44:00,40.0,38.0,30.29,ESE,114,0.0,-999.0,94,-99.99,,,-99.99,,2013-07-27 11:44:00,
2013-07-27 05:53:00,40.0,38.0,30.29,ESE,114,0.0,-999.0,94,-99.99,,,-99.99,,2013-07-27 11:53:00,
2013-07-27 06:02:00,40.0,38.0,30.29,ESE,114,0.0,-999.0,94,-99.99,,,-99.99,,2013-07-27 12:02:00,
2013-07-27 06:12:00,40.0,38.0,30.29,ESE,114,0.0,-999.0,94,-99.99,,,-99.99,,2013-07-27 12:12:00,
2013-07-27 06:22:00,42.0,41.0,30.29,ESE,114,0.0,-999.0,95,-99.99,,,-99.99,,2013-07-27 12:22:00,
2013-07-27 06:30:00,44.0,43.0,30.29,ESE,114,0.0,-999.0,95,-99.99,,,-99.99,,2013-07-27 12:30:00,
2013-07-27 06:33:00,42.0,41.0,30.29,ESE,114,0.0,-999.0,95,-99.99,,,-99.99,,2013-07-27 12:33:00,
2013-07-27 06:43:00,42.0,41.0,30.29,ESE,114,0.0,-999.0,95,-99.99,,,-99.99,,2013-07-27 12:43:00,
2013-07-27 06:52:00,44.0,43.0,30.29,ESE,114,0.0,-999.0,95,-99.99,,,-99.99,,2013-07-27 12:52:00,
2013-07-27 07:02:00,44.0,43.0,30.29,ESE,114,0.0,-999.0,95,-99.99,,,-99.99,,2013-07-27 13:02:00,
2013-07-27 07:12:00,44.0,43.0,30.29,ESE,114,0.0,-999.0,95,-99.99,,,-99.99,,2013-07-27 13:12:00,
2013-07-27 07:22:00,44.0,43.0,30.29,ESE,114,0.0,-999.0,95,-99.99,,,-99.99,,2013-07-27 13:22:00,
2013-07-27 07:53:00,52.0,48.0,30.28,ESE,114,5.0,-999.0,85,-99.99,,,-99.99,,2013-07-27 13:53:00,
2013-07-27 08:02:00,52.0,48.0,30.28,ESE,114,5.0,-999.0,85,-99.99,,,-99.99,,2013-07-27 14:02:00,
2013-07-27 08:12:00,52.0,48.0,30.28,ESE,114,5.0,-999.0,85,-99.99,,,-99.99,,2013-07-27 14:12:00,
2013-07-27 08:22:00,56.0,47.0,30.27,ESE,119,9.0,-999.0,73,-99.99,,,-99.99,,2013-07-27 14:22:00,
2013-07-27 08:32:00,56.0,47.0,30.27,ESE,119,9.0,-999.0,73,-99.99,,,-99.99,,2013-07-27 14:32:00,
2013-07-27 08:44:00,56.0,47.0,30.27,ESE,119,9.0,-999.0,73,-99.99,,,-99.99,,2013-07-27 14:44:00,
2013-07-27 08:54:00,58.0,47.0,30.26,ESE,121,11.0,-999.0,68,-99.99,,,-99.99,,2013-07-27 14:54:00,
2013-07-27 09:00:00,60.0,47.0,30.25,SE,127,12.0,-999.0,62,-99.99,,,-99.99,,2013-07-27 15:00:00,
2013-07-27 09:02:00,58.0,47.0,30.26,ESE,121,11.0,-999.0,68,-99.99,,,-99.99,,2013-07-27 15:02:00,
2013-07-27 09:12:00,58.0,47.0,30.26,ESE,121,11.0,-999.0,68,-99.99,,,-99.99,,2013-07-27 15:12:00,
2013-07-27 09:22:00,60.0,47.0,30.25,SE,127,12.0,-999.0,62,-99.99,,,-99.99,,2013-07-27 15:22:00,
2013-07-27 09:33:00,60.0,47.0,30.25,SE,127,12.0,-999.0,62,-99.99,,,-99.99,,2013-07-27 15:33:00,
2013-07-27 09:44:00,60.0,47.0,30.25,SE,127,12.0,-999.0,62,-99.99,,,-99.99,,2013-07-27 15:44:00,
2013-07-27 09:53:00,60.0,47.0,30.25,SE,127,12.0,-999.0,62,-99.99,,,-99.99,,2013-07-27 15:53:00,
2013-07-27 10:00:00,63.0,48.0,30.22,ESE,121,14.0,-999.0,57,-99.99,,,-99.99,,2013-07-27 16:00:00,
2013-07-27 10:23:00,63.0,48.0,30.22,ESE,121,14.0,-999.0,57,-99.99,,,-99.99,,2013-07-27 16:23:00,
2013-07-27 10:33:00,63.0,48.0,30.22,ESE,121,14.0,-999.0,57,-99.99,,,-99.99,,2013-07-27 16:33:00,
2013-07-27 10:43:00,63.0,48.0,30.22,ESE,121,14.0,-999.0,57,-99.99,,,-99.99,,2013-07-27 16:43:00,
2013-07-27 10:54:00,63.0,48.0,30.22,ESE,121,14.0,-999.0,57,-99.99,,,-99.99,,2013-07-27 16:54:00,
2013-07-27 11:13:00,67.0,48.0,30.19,SE,126,13.0,-999.0,50,-99.99,,,-99.99,,2013-07-27 17:13:00,
2013-07-27 11:23:00,67.0,48.0,30.19,SE,126,13.0,-999.0,50,-99.99,,,-99.99,,2013-07-27 17:23:00,
2013-07-27 11:32:00,67.0,48.0,30.19,SE,126,13.0,-999.0,50,-99.99,,,-99.99,,2013-07-27 17:32:00,
2013-07-27 11:43:00,68.0,48.0,30.19,SE,127,13.0,-999.0,49,-99.99,,,-99.99,,2013-07-27 17:43:00,
2013-07-27 11:53:00,68.0,48.0,30.19,SE,127,13.0,-999.0,49,-99.99,,,-99.99,,2013-07-27 17:53:00,
2013-07-27 12:00:00,69.0,48.0,30.17,SE,124,15.0,-999.0,47,-99.99,,,-99.99,,2013-07-27 18:00:00,
2013-07-27 12:02:00,68.0,48.0,30.19,SE,127,13.0,-999.0,49,-99.99,,,-99.99,,2013-07-27 18:02:00,
2013-07-27 12:12:00,68.0,48.0,30.19,SE,127,13.0,-999.0,49,-99.99,,,-99.99,,2013-07-27 18:12:00,
2013-07-27 12:22:00,69.0,48.0,30.17,SE,124,15.0,-999.0,47,-99.99,,,-99.99,,2013-07-27 18:22:00,
2013-07-27 12:32:00,69.0,48.0,30.17,SE,124,15.0,-999.0,47,-99.99,,,-99.99,,2013-07-27 18:32:00,
2013-07-27 12:43:00,69.0,48.0,30.17,SE,124,15.0,-999.0,47,-99.99,,,-99.99,,2013-07-27 18:43:00,
2013-07-27 12:53:00,69.0,48.0,30.17,SE,124,15.0,-999.0,47,-99.99,,,-99.99,,2013-07-27 18:53:00,
2013-07-27 13:12:00,71.0,47.0,30.15,SE,129,13.0,-999.0,43,-99.99,,,-99.99,,2013-07-27 19:12:00,
2013-07-27 13:23:00,71.0,47.0,30.15,SE,129,13.0,-999.0,43,-99.99,,,-99.99,,2013-07-27 19:23:00,
2013-07-27 13:32:00,71.0,47.0,30.15,SE,129,13.0,-999.0,43,-99.99,,,-99.99,,2013-07-27 19:32:00,
2013-07-27 13:43:00,71.0,46.0,30.14,SSE,162,13.0,-999.0,41,-99.99,,,-99.99,,2013-07-27 19:43:00,
2013-07-27 13:53:00,71.0,46.0,30.14,SSE,162,13.0,-999.0,41,-99.99,,,-99.99,,2013-07-27 19:53:00,
2013-07-27 14:02:00,71.0,46.0,30.14,SSE,162,13.0,-999.0,41,-99.99,,,-99.99,,2013-07-27 20:02:00,
2013-07-27 14:12:00,71.0,46.0,30.14,SSE,162,13.0,-999.0,41,-99.99,,,-99.99,,2013-07-27 20:12:00,
2013-07-27 14:22:00,72.0,47.0,30.14,ESE,115,14.0,-999.0,41,-99.99,,,-99.99,,2013-07-27 20:22:00,
2013-07-27 14:30:00,73.0,48.0,30.12,SE,134,14.0,-999.0,41,-99.99,,,-99.99,,2013-07-27 20:30:00,
2013-07-27 14:32:00,72.0,47.0,30.14,ESE,115,14.0,-999.0,41,-99.99,,,-99.99,,2013-07-27 20:32:00,
2013-07-27 14:43:00,72.0,47.0,30.14,ESE,115,14.0,-999.0,41,-99.99,,,-99.99,,2013-07-27 20:43:00,
2013-07-27 14:52:00,73.0,48.0,30.12,SE,134,14.0,-999.0,41,-99.99,,,-99.99,,2013-07-27 20:52:00,
2013-07-27 15:02:00,73.0,48.0,30.12,SE,134,14.0,-999.0,41,-99.99,,,-99.99,,2013-07-27 21:02:00,
2013-07-27 15:12:00,73.0,48.0,30.12,SE,134,14.0,-999.0,41,-99.99,,,-99.99,,2013-07-27 21:12:00,
2013-07-27 15:22:00,73.0,48.0,30.12,SE,134,14.0,-999.0,41,-99.99,,,-99.99,,2013-07-27 21:22:00,
2013-07-27 15:30:00,74.0,48.0,30.09,SE,134,14.0,-999.0,40,-99.99,,,-99.99,,2013-07-27 21:30:00,
2013-07-27 15:53:00,74.0,48.0,30.09,SE,134,14.0,-999.0,40,-99.99,,,-99.99,,2013-07-27 21:53:00,
2013-07-27 16:02:00,74.0,48.0,30.09,SE,134,14.0,-999.0,40,-99.99,,,-99.99,,2013-07-27 22:02:00,
2013-07-27 16:12:00,74.0,48.0,30.09,SE,134,14.0,-999.0,40,-99.99,,,-99.99,,2013-07-27 22:12:00,
2013-07-27 16:22:00,74.0,48.0,30.09,SE,134,14.0,-999.0,40,-99.99,,,-99.99,,2013-07-27 22:22:00,
2013-07-27 16:43:00,74.0,47.0,30.07,SSE,150,14.0,-999.0,38,-99.99,,,-99.99,,2013-07-27 22:43:00,
2013-07-27 16:53:00,74.0,47.0,30.07,SSE,150,14.0,-999.0,38,-99.99,,,-99.99,,2013-07-27 22:53:00,
2013-07-27 17:02:00,74.0,47.0,30.07,SSE,150,14.0,-999.0,38,-99.99,,,-99.99,,2013-07-27 23:02:00,
2013-07-27 17:12:00,75.0,47.0,30.06,SE,135,13.0,-999.0,37,-99.99,,,-99.99,,2013-07-27 23:12:00,
2013-07-27 17:22:00,75.0,47.0,30.06,SE,135,13.0,-999.0,37,-99.99,,,-99.99,,2013-07-27 23:22:00,
2013-07-27 17:30:00,74.0,47.0,30.06,SE,141,13.0,-999.0,38,-99.99,,,-99.99,,2013-07-27 23:30:00,
2013-07-27 17:32:00,75.0,47.0,30.06,SE,135,13.0,-999.0,37,-99.99,,,-99.99,,2013-07-27 23:32:00,
2013-07-27 17:44:00,75.0,47.0,30.06,SE,135,13.0,-999.0,37,-99.99,,,-99.99,,2013-07-27 23:44:00,
2013-07-27 17:53:00,74.0,47.0,30.06,SE,141,13.0,-999.0,38,-99.99,,,-99.99,,2013-07-27 23:53:00,
2013-07-27 18:02:00,74.0,47.0,30.06,SE,141,13.0,-999.0,38,-99.99,,,-99.99,,2013-07-28 00:02:00,
2013-07-27 18:12:00,74.0,47.0,30.06,SE,141,13.0,-999.0,38,-99.99,,,-99.99,,2013-07-28 00:12:00,
2013-07-27 18:22:00,74.0,47.0,30.06,SE,141,13.0,-999.0,38,-99.99,,,-99.99,,2013-07-28 00:22:00,
2013-07-27 18:53:00,73.0,47.0,30.04,ESE,123,12.0,-999.0,39,-99.99,,,-99.99,,2013-07-28 00:53:00,
2013-07-27 19:02:00,73.0,47.0,30.04,ESE,123,12.0,-999.0,39,-99.99,,,-99.99,,2013-07-28 01:02:00,
2013-07-27 19:12:00,73.0,47.0,30.04,ESE,123,12.0,-999.0,39,-99.99,,,-99.99,,2013-07-28 01:12:00,
2013-07-27 19:22:00,72.0,46.0,30.03,SE,134,13.0,-999.0,39,-99.99,,,-99.99,,2013-07-28 01:22:00,
2013-07-27 19:32:00,72.0,46.0,30.03,SE,134,13.0,-999.0,39,-99.99,,,-99.99,,2013-07-28 01:32:00,
2013-07-27 19:43:00,72.0,46.0,30.03,SE,134,13.0,-999.0,39,-99.99,,,-99.99,,2013-07-28 01:43:00,
2013-07-27 19:53:00,70.0,45.0,30.03,ESE,123,11.0,-999.0,40,-99.99,,,-99.99,,2013-07-28 01:53:00,
2013-07-27 20:02:00,70.0,45.0,30.03,ESE,123,11.0,-999.0,40,-99.99,,,-99.99,,2013-07-28 02:02:00,
2013-07-27 20:12:00,70.0,45.0,30.03,ESE,123,11.0,-999.0,40,-99.99,,,-99.99,,2013-07-28 02:12:00,
2013-07-27 20:22:00,67.0,44.0,30.03,SE,125,7.0,-999.0,44,-99.99,,,-99.99,,2013-07-28 02:22:00,
2013-07-27 20:32:00,67.0,44.0,30.03,SE,125,7.0,-999.0,44,-99.99,,,-99.99,,2013-07-28 02:32:00,
2013-07-27 20:42:00,67.0,44.0,30.03,SE,125,7.0,-999.0,44,-99.99,,,-99.99,,2013-07-28 02:42:00,
2013-07-27 20:53:00,64.0,44.0,30.03,SE,124,5.0,-999.0,49,-99.99,,,-99.99,,2013-07-28 02:53:00,
2013-07-27 21:00:00,60.0,45.0,30.04,SE,124,6.0,-999.0,58,-99.99,,,-99.99,,2013-07-28 03:00:00,
2013-07-27 21:02:00,64.0,44.0,30.03,SE,124,5.0,-999.0,49,-99.99,,,-99.99,,2013-07-28 03:02:00,
2013-07-27 21:12:00,60.0,45.0,30.04,SE,124,6.0,-999.0,58,-99.99,,,-99.99,,2013-07-28 03:12:00,
2013-07-27 21:22:00,60.0,45.0,30.04,SE,124,6.0,-999.0,58,-99.99,,,-99.99,,2013-07-28 03:22:00,
2013-07-27 21:32:00,60.0,45.0,30.04,SE,124,6.0,-999.0,58,-99.99,,,-99.99,,2013-07-28 03:32:00,
2013-07-27 21:42:00,60.0,45.0,30.04,SE,124,6.0,-999.0,58,-99.99,,,-99.99,,2013-07-28 03:42:00,
2013-07-27 21:53:00,60.0,45.0,30.04,SE,124,6.0,-999.0,58,-99.99,,,-99.99,,2013-07-28 03:53:00,
2013-07-27 22:22:00,57.0,45.0,30.04,ESE,123,5.0,-999.0,65,-99.99,,,-99.99,,2013-07-28 04:22:00,
2013-07-27 22:32:00,57.0,45.0,30.04,ESE,123,5.0,-999.0,65,-99.99,,,-99.99,,2013-07-28 04:32:00,
2013-07-27 22:53:00,54.0,45.0,30.04,ESE,123,5.0,-999.0,71,-99.99,,,-99.99,,2013-07-28 04:53:00,
2013-07-27 23:02:00,54.0,45.0,30.04,ESE,123,5.0,-999.0,71,-99.99,,,-99.99,,2013-07-28 05:02:00,
2013-07-27 23:30:00,50.0,43.0,30.04,ESE,123,3.0,-999.0,77,-99.99,,,-99.99,,2013-07-28 05:30:00,
2013-07-27 23:32:00,52.0,44.0,30.04,ESE,123,4.0,-999.0,74,-99.99,,,-99.99,,2013-07-28 05:32:00,
2013-07-27 23:43:00,52.0,44.0,30.04,ESE,123,4.0,-999.0,74,-99.99,,,-99.99,,2013-07-28 05:43:00,